Location: Paris
(48.6709°N, 2.3750°E)
Time: 18:51:29
(UTC+02:00)

STARS - Pass Details

Date: 05 July 2022
Orbit: 620 x 637 km, 98.2° (Epoch: 06 August)

Event Time Altitude Azimuth Distance (km) Brightness Sun altitude
Rises 01:36:02 0° 5° (N) 2,933 ? -18.4°
Reaches altitude 10° 01:38:28 10° 354° (N) 2,017 ? -18.4°
Maximum altitude 01:42:13 29° 295° (WNW) 1,164 ? -18.5°
Enters shadow 01:45:14 14° 241° (WSW) 1,752 ? -18.5°
